UTA296 USRR-UUWW

Flight info

Callsign UTA296
Flight time N/A
Altitude 34000
Route ANIKI1E ANIKI G484 HMN L870 UNISO N869 REKPA N181 ROMTA ROMTA3B
Aircraft B738/M-SDE2E3FGHIRWXY/LB1

Departure

Time 2026-05-01 09:25
Airport Surgut International Airport (USRR)

Arrival

Time N/A
Airport Vnukovo International Airport (UUWW)
Time Latitude Longitude Altitude Speed Heading
2026-05-01 09:04 61.34128 73.39921 207 ft 0 kts 360°
2026-05-01 09:17 61.34135 73.39920 211 ft 3 kts 359°
2026-05-01 09:17 61.34176 73.39870 208 ft 4 kts 286°
2026-05-01 09:18 61.34178 73.39813 206 ft 4 kts 269°
2026-05-01 09:18 61.34177 73.39630 207 ft 10 kts 270°
2026-05-01 09:19 61.34177 73.39326 215 ft 10 kts 269°
2026-05-01 09:19 61.34176 73.39182 206 ft 10 kts 270°
2026-05-01 09:19 61.34176 73.39044 210 ft 10 kts 268°
2026-05-01 09:20 61.34174 73.38774 213 ft 9 kts 270°
2026-05-01 09:20 61.34171 73.38519 211 ft 9 kts 269°
2026-05-01 09:21 61.34173 73.38279 206 ft 8 kts 279°
2026-05-01 09:21 61.34204 73.38188 211 ft 8 kts 320°
2026-05-01 09:21 61.34292 73.38052 207 ft 11 kts 336°
2026-05-01 09:22 61.34360 73.37769 205 ft 13 kts 237°
2026-05-01 09:24 61.34381 73.37783 193 ft 6 kts 90°
2026-05-01 09:24 61.34383 73.38408 192 ft 79 kts 90°
2026-05-01 09:24 61.34399 73.42140 264 ft 178 kts 90°
2026-05-01 09:25 61.34474 73.47697 1210 ft 209 kts 85°
2026-05-01 09:25 61.35103 73.50336 1887 ft 206 kts 39°
2026-05-01 09:27 61.36118 73.34380 5197 ft 266 kts 230°
2026-05-01 09:27 61.34975 73.31349 5932 ft 267 kts 231°
2026-05-01 09:27 61.33894 73.28191 6639 ft 269 kts 238°
2026-05-01 09:28 61.33064 73.24859 7299 ft 271 kts 243°
2026-05-01 09:28 61.32254 73.21268 7981 ft 273 kts 243°
2026-05-01 09:28 61.31447 73.17651 8634 ft 276 kts 243°
2026-05-01 09:28 61.30938 73.15379 9047 ft 277 kts 243°
2026-05-01 09:29 61.28037 73.02710 10778 ft 303 kts 242°
2026-05-01 09:30 61.26094 72.94391 11090 ft 338 kts 242°
2026-05-01 09:30 61.25048 72.89937 11432 ft 348 kts 242°
2026-05-01 09:30 61.22934 72.80964 12807 ft 346 kts 242°
2026-05-01 09:31 61.21872 72.76473 13420 ft 349 kts 242°
2026-05-01 09:31 61.20873 72.72268 13959 ft 351 kts 242°
2026-05-01 09:31 61.18694 72.63109 15114 ft 357 kts 242°
2026-05-01 09:32 61.17589 72.58479 15689 ft 359 kts 242°
2026-05-01 09:32 61.15351 72.49136 16796 ft 364 kts 242°
2026-05-01 09:32 61.14224 72.44448 17330 ft 367 kts 242°
2026-05-01 09:33 61.13084 72.39713 17855 ft 369 kts 242°
2026-05-01 09:33 61.11930 72.34936 18375 ft 372 kts 242°
2026-05-01 09:33 61.09606 72.25336 19364 ft 376 kts 242°
2026-05-01 09:34 61.08428 72.20490 19839 ft 378 kts 242°
2026-05-01 09:34 61.07243 72.15621 20318 ft 380 kts 242°
2026-05-01 09:34 61.04881 72.05949 21158 ft 385 kts 242°
2026-05-01 09:35 61.03670 72.00998 21590 ft 387 kts 242°
2026-05-01 09:35 61.01227 71.91057 22407 ft 391 kts 242°
2026-05-01 09:35 61.00331 71.85729 22764 ft 398 kts 256°
2026-05-01 09:36 61.00121 71.80076 23144 ft 405 kts 266°
2026-05-01 09:36 61.00231 71.74245 23496 ft 409 kts 268°
2026-05-01 09:36 61.00378 71.68378 23820 ft 412 kts 268°
2026-05-01 09:36 61.00526 71.62469 24147 ft 414 kts 268°
2026-05-01 09:37 61.00662 71.56540 24501 ft 415 kts 268°
2026-05-01 09:37 61.00902 71.44642 25188 ft 416 kts 267°
2026-05-01 09:37 61.01009 71.38672 25516 ft 417 kts 267°
2026-05-01 09:38 61.01211 71.26712 26112 ft 420 kts 266°
2026-05-01 09:38 61.01309 71.20714 26402 ft 421 kts 266°
2026-05-01 09:38 61.01374 71.16632 26591 ft 422 kts 266°
2026-05-01 09:39 61.01561 71.04515 27198 ft 423 kts 266°
2026-05-01 09:39 61.01650 70.98456 27574 ft 421 kts 266°
2026-05-01 09:39 61.01737 70.92541 28096 ft 416 kts 266°
2026-05-01 09:40 61.01826 70.86517 28509 ft 414 kts 266°
2026-05-01 09:40 61.01997 70.74775 29206 ft 411 kts 265°
2026-05-01 09:40 61.02080 70.68896 29590 ft 409 kts 265°
2026-05-01 09:41 61.02160 70.63060 29997 ft 406 kts 265°
2026-05-01 09:41 61.02310 70.51384 30643 ft 403 kts 265°
2026-05-01 09:41 61.02380 70.45691 30969 ft 402 kts 265°
2026-05-01 09:42 61.02448 70.39958 31323 ft 399 kts 264°
2026-05-01 09:42 61.02513 70.34238 31645 ft 398 kts 265°
2026-05-01 09:42 61.02634 70.22890 32268 ft 394 kts 264°
2026-05-01 09:43 61.02748 70.11641 32917 ft 389 kts 264°
2026-05-01 09:43 61.02801 70.06067 33211 ft 387 kts 264°
2026-05-01 09:43 61.02847 70.00527 33457 ft 387 kts 264°
2026-05-01 09:44 61.02933 69.89443 33878 ft 387 kts 264°
2026-05-01 09:44 61.02974 69.83927 34004 ft 383 kts 264°
2026-05-01 09:45 61.03048 69.72918 34017 ft 385 kts 263°
2026-05-01 09:45 61.03142 69.56248 34026 ft 390 kts 263°
2026-05-01 09:46 61.03196 69.45042 34021 ft 391 kts 263°
2026-05-01 09:46 61.03241 69.33809 34020 ft 392 kts 263°
2026-05-01 09:47 61.03278 69.22583 34016 ft 391 kts 263°
2026-05-01 09:47 61.03358 69.11370 34010 ft 393 kts 267°
2026-05-01 09:48 61.04081 69.00107 34011 ft 396 kts 270°
2026-05-01 09:48 61.04878 68.88876 34013 ft 395 kts 270°
2026-05-01 09:49 61.05636 68.77680 34020 ft 393 kts 269°
2026-05-01 09:49 61.06369 68.66459 34026 ft 397 kts 269°